| time (UTC) | temp C | wind direction | speed KPH | gust KPH | rain 1hr cm | rain 24hr cm | rain mn cm | humidity % | barometer mb |
| 20260507221607 | 30 | 269 | 9.7 | 19.3 | 0.00 | 0.00 | 0.00 | 31 | 1012.9 |
| 20260507221104 | 30 | 345 | 9.7 | 19.3 | 0.00 | 0.00 | 0.00 | 30 | 1013.1 |
| 20260507220604 | 30 | 308 | 9.7 | 20.9 | 0.00 | 0.00 | 0.00 | 29 | 1013.1 |
| 20260507220104 | 30 | 250 | 9.7 | 20.9 | 0.00 | 0.00 | 0.00 | 29 | 1013.3 |
| 20260507215104 | 30 | 265 | 9.7 | 20.9 | 0.00 | 0.00 | 0.00 | 30 | 1013.3 |
| 20260507214606 | 30 | 312 | 11.3 | 19.3 | 0.00 | 0.00 | 0.00 | 27 | 1013.4 |
| 20260507214104 | 30 | 287 | 9.7 | 19.3 | 0.00 | 0.00 | 0.00 | 29 | 1013.4 |
| 20260507213604 | 30 | 293 | 11.3 | 19.3 | 0.00 | 0.00 | 0.00 | 28 | 1013.4 |
| 20260507213104 | 30 | 298 | 9.7 | 19.3 | 0.00 | 0.00 | 0.00 | 27 | 1013.4 |
| 20260507212604 | 30 | 288 | 9.7 | 19.3 | 0.00 | 0.00 | 0.00 | 26 | 1013.4 |
| 20260507212104 | 30 | 305 | 9.7 | 19.3 | 0.00 | 0.00 | 0.00 | 27 | 1013.6 |
| 20260507211104 | 30 | 296 | 11.3 | 19.3 | 0.00 | 0.00 | 0.00 | 28 | 1013.7 |
| 20260507210605 | 30 | 321 | 11.3 | 20.9 | 0.00 | 0.00 | 0.00 | 27 | 1013.7 |
| 20260507210104 | 30 | 319 | 11.3 | 20.9 | 0.00 | 0.00 | 0.00 | 27 | 1013.8 |
| 20260507205604 | 30 | 285 | 8.0 | 16.1 | 0.00 | 0.00 | 0.00 | 29 | 1013.9 |
| 20260507205104 | 30 | 272 | 9.7 | 19.3 | 0.00 | 0.00 | 0.00 | 29 | 1014.0 |
| 20260507204604 | 29 | 259 | 11.3 | 19.3 | 0.00 | 0.00 | 0.00 | 29 | 1014.1 |
| 20260507204105 | 29 | 267 | 9.7 | 19.3 | 0.00 | 0.00 | 0.00 | 29 | 1014.1 |
| 20260507203104 | 29 | 287 | 8.0 | 14.5 | 0.00 | 0.00 | 0.00 | 29 | 1014.1 |
| 20260507202604 | 28 | 242 | 4.8 | 16.1 | 0.00 | 0.00 | 0.00 | 30 | 1014.1 |
| 20260507202106 | 28 | 283 | 8.0 | 19.3 | 0.00 | 0.00 | 0.00 | 31 | 1014.1 |
| 20260507200604 | 28 | 289 | 6.4 | 14.5 | 0.00 | 0.00 | 0.00 | 31 | 1014.4 |
| 20260507200104 | 28 | 210 | 6.4 | 14.5 | 0.00 | 0.00 | 0.00 | 32 | 1014.6 |
| 20260507195604 | 28 | 277 | 8.0 | 14.5 | 0.00 | 0.00 | 0.00 | 31 | 1014.7 |
| 20260507194604 | 28 | 273 | 8.0 | 11.3 | 0.00 | 0.00 | 0.00 | 32 | 1014.7 |
| 20260507193604 | 27 | 236 | 1.6 | 12.9 | 0.00 | 0.00 | 0.00 | 32 | 1014.8 |
| 20260507193104 | 27 | 288 | 3.2 | 11.3 | 0.00 | 0.00 | 0.00 | 32 | 1014.8 |
| 20260507192603 | 27 | 282 | 3.2 | 11.3 | 0.00 | 0.00 | 0.00 | 32 | 1014.9 |
| 20260507192104 | 27 | 310 | 6.4 | 11.3 | 0.00 | 0.00 | 0.00 | 33 | 1015.0 |
| 20260507191604 | 26 | 319 | 4.8 | 12.9 | 0.00 | 0.00 | 0.00 | 32 | 1015.0 |
| 20260507191104 | 26 | 253 | 8.0 | 12.9 | 0.00 | 0.00 | 0.00 | 32 | 1015.3 |
| 20260507190604 | 26 | 297 | 4.8 | 11.3 | 0.00 | 0.00 | 0.00 | 32 | 1015.2 |
| 20260507190104 | 26 | 183 | 4.8 | 12.9 | 0.00 | 0.00 | 0.00 | 31 | 1015.3 |
| 20260507185603 | 26 | 260 | 4.8 | 12.9 | 0.00 | 0.00 | 0.00 | 31 | 1015.4 |
| 20260507185104 | 25 | 273 | 4.8 | 12.9 | 0.00 | 0.00 | 0.00 | 33 | 1015.4 |
| 20260507184604 | 25 | 300 | 4.8 | 11.3 | 0.00 | 0.00 | 0.00 | 34 | 1015.3 |
| 20260507184104 | 25 | 309 | 6.4 | 11.3 | 0.00 | 0.00 | 0.00 | 34 | 1015.4 |
| 20260507183603 | 25 | 303 | 6.4 | 11.3 | 0.00 | 0.00 | 0.00 | 34 | 1015.5 |
| 20260507183104 | 25 | 274 | 4.8 | 12.9 | 0.00 | 0.00 | 0.00 | 34 | 1015.6 |
| 20260507182604 | 25 | 273 | 8.0 | 12.9 | 0.00 | 0.00 | 0.00 | 35 | 1015.7 |
| 20260507182106 | 24 | 291 | 4.8 | 9.7 | 0.00 | 0.00 | 0.00 | 35 | 1015.7 |
| 20260507181604 | 24 | 277 | 4.8 | 9.7 | 0.00 | 0.00 | 0.00 | 36 | 1015.7 |
| 20260507181106 | 24 | 294 | 6.4 | 11.3 | 0.00 | 0.00 | 0.00 | 37 | 1015.8 |
| 20260507180604 | 23 | 253 | 8.0 | 11.3 | 0.00 | 0.00 | 0.00 | 38 | 1015.8 |
| 20260507180104 | 23 | 285 | 4.8 | 11.3 | 0.00 | 0.00 | 0.00 | 39 | 1015.9 |
| 20260507175104 | 23 | 270 | 6.4 | 11.3 | 0.00 | 0.00 | 0.00 | 39 | 1016.0 |
| 20260507174104 | 23 | 304 | 3.2 | 9.7 | 0.00 | 0.00 | 0.00 | 39 | 1016.0 |
| 20260507173605 | 22 | 318 | 4.8 | 9.7 | 0.00 | 0.00 | 0.00 | 40 | 1016.0 |
| 20260507173104 | 22 | 308 | 4.8 | 9.7 | 0.00 | 0.00 | 0.00 | 42 | 1016.0 |
| 20260507172604 | 22 | 303 | 4.8 | 11.3 | 0.00 | 0.00 | 0.00 | 43 | 1016.0 |
| 20260507172104 | 22 | 314 | 6.4 | 11.3 | 0.00 | 0.00 | 0.00 | 43 | 1016.0 |
| 20260507171604 | 22 | 281 | 4.8 | 11.3 | 0.00 | 0.00 | 0.00 | 44 | 1016.0 |
| 20260507171107 | 22 | 265 | 4.8 | 11.3 | 0.00 | 0.00 | 0.00 | 44 | 1016.0 |
| 20260507170604 | 22 | 305 | 3.2 | 9.7 | 0.00 | 0.00 | 0.00 | 44 | 1016.0 |
| 20260507165105 | 21 | 321 | 3.2 | 8.0 | 0.00 | 0.00 | 0.00 | 45 | 1016.2 |
| 20260507164604 | 21 | 298 | 4.8 | 8.0 | 0.00 | 0.00 | 0.00 | 45 | 1016.2 |
| 20260507164104 | 20 | 257 | 4.8 | 8.0 | 0.00 | 0.00 | 0.00 | 45 | 1016.2 |
| 20260507163604 | 20 | 234 | 3.2 | 8.0 | 0.00 | 0.00 | 0.00 | 45 | 1016.2 |
| 20260507163105 | 20 | 294 | 4.8 | 8.0 | 0.00 | 0.00 | 0.00 | 46 | 1016.2 |
| 20260507162105 | 19 | 318 | 3.2 | 4.8 | 0.00 | 0.00 | 0.00 | 46 | 1016.2 |
| 20260507161104 | 18 | 302 | 3.2 | 8.0 | 0.00 | 0.00 | 0.00 | 49 | 1016.2 |
| 20260507160104 | 18 | 273 | 4.8 | 9.7 | 0.00 | 0.00 | 0.00 | 53 | 1016.3 |
| 20260507155604 | 18 | 299 | 4.8 | 8.0 | 0.00 | 0.00 | 0.00 | 54 | 1016.2 |
| 20260507154604 | 18 | 65 | 3.2 | 8.0 | 0.00 | 0.00 | 0.00 | 55 | 1016.2 |
| 20260507154104 | 18 | 86 | 1.6 | 4.8 | 0.00 | 0.00 | 0.00 | 55 | 1016.3 |
| 20260507153104 | 17 | 89 | 1.6 | 4.8 | 0.00 | 0.00 | 0.00 | 58 | 1016.2 |
| 20260507152604 | 17 | 90 | 0.0 | 1.6 | 0.00 | 0.00 | 0.00 | 60 | 1016.2 |
| 20260507152104 | 17 | 90 | 0.0 | 3.2 | 0.00 | 0.00 | 0.00 | 59 | 1016.2 |
| 20260507151604 | 17 | 90 | 0.0 | 4.8 | 0.00 | 0.00 | 0.00 | 61 | 1016.2 |
| 20260507151107 | 17 | 90 | 3.2 | 4.8 | 0.00 | 0.00 | 0.00 | 61 | 1016.2 |
| 20260507150604 | 17 | 90 | 1.6 | 4.8 | 0.00 | 0.00 | 0.00 | 59 | 1016.3 |
| 20260507150105 | 17 | 90 | 0.0 | 3.2 | 0.00 | 0.00 | 0.00 | 57 | 1016.3 |
| 20260507145604 | 18 | 90 | 0.0 | 1.6 | 0.00 | 0.00 | 0.00 | 58 | 1016.3 |
| 20260507145104 | 17 | 79 | 0.0 | 0.0 | 0.00 | 0.00 | 0.00 | 57 | 1016.3 |
| 20260507144604 | 17 | 79 | 0.0 | 0.0 | 0.00 | 0.00 | 0.00 | 57 | 1016.3 |
| 20260507144105 | 17 | 79 | 0.0 | 0.0 | 0.00 | 0.00 | 0.00 | 59 | 1016.3 |
| 20260507143604 | 16 | 79 | 0.0 | 0.0 | 0.00 | 0.00 | 0.00 | 60 | 1016.3 |
| 20260507143104 | 16 | 79 | 0.0 | 0.0 | 0.00 | 0.00 | 0.00 | 62 | 1016.3 |
| 20260507142604 | 15 | 79 | 0.0 | 0.0 | 0.00 | 0.00 | 0.00 | 63 | 1016.3 |
| 20260507142104 | 15 | 79 | 0.0 | 0.0 | 0.00 | 0.00 | 0.00 | 65 | 1016.3 |
| 20260507141607 | 14 | 79 | 0.0 | 0.0 | 0.00 | 0.00 | 0.00 | 64 | 1016.3 |
| 20260507141104 | 13 | 79 | 0.0 | 0.0 | 0.00 | 0.00 | 0.00 | 64 | 1016.3 |
| 20260507140604 | 13 | 79 | 0.0 | 1.6 | 0.00 | 0.00 | 0.00 | 65 | 1016.3 |
| 20260507140104 | 13 | 79 | 0.0 | 3.2 | 0.00 | 0.00 | 0.00 | 65 | 1016.2 |
| 20260507135604 | 13 | 80 | 0.0 | 3.2 | 0.00 | 0.00 | 0.00 | 64 | 1016.1 |
| 20260507134103 | 13 | 76 | 0.0 | 3.2 | 0.00 | 0.00 | 0.00 | 63 | 1016.1 |
| 20260507133604 | 12 | 75 | 0.0 | 3.2 | 0.00 | 0.00 | 0.00 | 65 | 1016.1 |
| 20260507133104 | 12 | 62 | 0.0 | 3.2 | 0.00 | 0.00 | 0.00 | 65 | 1016.1 |
| 20260507132604 | 12 | 86 | 0.0 | 1.6 | 0.00 | 0.00 | 0.00 | 65 | 1016.0 |
| 20260507132104 | 12 | 86 | 0.0 | 1.6 | 0.00 | 0.00 | 0.00 | 64 | 1016.0 |
| 20260507131107 | 13 | 86 | 0.0 | 0.0 | 0.00 | 0.00 | 0.00 | 62 | 1016.0 |
| 20260507130104 | 13 | 86 | 0.0 | 1.6 | 0.00 | 0.00 | 0.00 | 62 | 1015.9 |
| 20260507125604 | 13 | 86 | 0.0 | 1.6 | 0.00 | 0.00 | 0.00 | 62 | 1015.9 |
| 20260507125104 | 13 | 86 | 0.0 | 1.6 | 0.00 | 0.00 | 0.00 | 62 | 1015.9 |
| 20260507124604 | 13 | 84 | 0.0 | 1.6 | 0.00 | 0.00 | 0.00 | 63 | 1015.9 |
| 20260507124104 | 12 | 85 | 1.6 | 1.6 | 0.00 | 0.00 | 0.00 | 66 | 1015.9 |
| 20260507123604 | 12 | 88 | 0.0 | 1.6 | 0.00 | 0.00 | 0.00 | 69 | 1015.9 |
| 20260507122106 | 12 | 88 | 0.0 | 1.6 | 0.00 | 0.00 | 0.00 | 72 | 1015.9 |
| 20260507121605 | 12 | 88 | 0.0 | 1.6 | 0.00 | 0.00 | 0.00 | 72 | 1015.9 |
| 20260507121107 | 12 | 88 | 0.0 | 3.2 | 0.00 | 0.00 | 0.00 | 73 | 1015.9 |
| 20260507120604 | 12 | 88 | 0.0 | 3.2 | 0.00 | 0.00 | 0.00 | 73 | 1015.8 |
| 20260507120104 | 12 | 73 | 1.6 | 3.2 | 0.00 | 0.00 | 0.00 | 74 | 1015.9 |
| 20260507114604 | 12 | 85 | 0.0 | 1.6 | 0.00 | 0.00 | 0.00 | 75 | 1015.9 |
| 20260507114104 | 12 | 85 | 0.0 | 1.6 | 0.00 | 0.00 | 0.00 | 75 | 1016.0 |
| 20260507113604 | 12 | 85 | 0.0 | 1.6 | 0.00 | 0.00 | 0.00 | 74 | 1016.1 |
| 20260507113104 | 12 | 85 | 0.0 | 1.6 | 0.00 | 0.00 | 0.00 | 74 | 1016.3 |
| 20260507112104 | 12 | 85 | 0.0 | 1.6 | 0.00 | 0.00 | 0.00 | 77 | 1016.4 |
| 20260507111605 | 12 | 85 | 0.0 | 1.6 | 0.00 | 0.00 | 0.00 | 77 | 1016.4 |
| 20260507111104 | 12 | 85 | 0.0 | 1.6 | 0.00 | 0.00 | 0.00 | 77 | 1016.4 |
| 20260507110604 | 12 | 84 | 0.0 | 1.6 | 0.00 | 0.00 | 0.00 | 77 | 1016.4 |
| 20260507110105 | 12 | 84 | 0.0 | 1.6 | 0.00 | 0.00 | 0.00 | 77 | 1016.4 |
| 20260507105603 | 12 | 81 | 1.6 | 1.6 | 0.00 | 0.00 | 0.00 | 77 | 1016.4 |
| 20260507105104 | 12 | 83 | 0.0 | 1.6 | 0.00 | 0.00 | 0.00 | 77 | 1016.4 |
| 20260507104104 | 12 | 83 | 0.0 | 1.6 | 0.00 | 0.00 | 0.00 | 77 | 1016.5 |
| 20260507103604 | 12 | 82 | 0.0 | 1.6 | 0.00 | 0.00 | 0.00 | 77 | 1016.5 |
| 20260507103104 | 12 | 82 | 0.0 | 0.0 | 0.00 | 0.00 | 0.00 | 77 | 1016.5 |
| 20260507102604 | 12 | 82 | 0.0 | 1.6 | 0.00 | 0.00 | 0.00 | 77 | 1016.6 |
| 20260507102106 | 12 | 82 | 0.0 | 1.6 | 0.00 | 0.00 | 0.00 | 77 | 1016.6 |
| 20260507101604 | 12 | 82 | 0.0 | 1.6 | 0.00 | 0.00 | 0.00 | 76 | 1016.6 |
| 20260507101106 | 12 | 82 | 0.0 | 1.6 | 0.00 | 0.00 | 0.00 | 76 | 1016.7 |
| 20260507100604 | 12 | 82 | 0.0 | 1.6 | 0.00 | 0.00 | 0.00 | 75 | 1016.7 |
| 20260507100104 | 13 | 82 | 0.0 | 0.0 | 0.00 | 0.00 | 0.00 | 75 | 1017.0 |
| 20260507095603 | 13 | 82 | 0.0 | 0.0 | 0.00 | 0.00 | 0.00 | 75 | 1017.0 |
| 20260507095104 | 13 | 82 | 0.0 | 1.6 | 0.00 | 0.00 | 0.00 | 75 | 1017.0 |
| 20260507094604 | 13 | 82 | 0.0 | 1.6 | 0.00 | 0.00 | 0.00 | 75 | 1017.0 |
| 20260507094104 | 13 | 82 | 0.0 | 1.6 | 0.00 | 0.00 | 0.00 | 74 | 1017.0 |
| 20260507093603 | 13 | 82 | 0.0 | 1.6 | 0.00 | 0.00 | 0.00 | 74 | 1017.1 |
| 20260507093104 | 13 | 82 | 0.0 | 1.6 | 0.00 | 0.00 | 0.00 | 74 | 1017.1 |
| 20260507092104 | 13 | 82 | 0.0 | 1.6 | 0.00 | 0.00 | 0.00 | 75 | 1017.2 |
| 20260507091604 | 13 | 82 | 0.0 | 1.6 | 0.00 | 0.00 | 0.00 | 76 | 1017.2 |
| 20260507091104 | 13 | 82 | 0.0 | 1.6 | 0.00 | 0.00 | 0.00 | 77 | 1017.2 |
| 20260507090605 | 13 | 81 | 0.0 | 1.6 | 0.00 | 0.00 | 0.00 | 78 | 1017.2 |
| 20260507090105 | 13 | 82 | 0.0 | 3.2 | 0.00 | 0.00 | 0.00 | 77 | 1017.2 |
| 20260507085104 | 13 | 73 | 1.6 | 3.2 | 0.00 | 0.00 | 0.00 | 79 | 1017.3 |
| 20260507084604 | 13 | 74 | 0.0 | 3.2 | 0.00 | 0.00 | 0.00 | 79 | 1017.3 |
| 20260507084104 | 13 | 74 | 1.6 | 3.2 | 0.00 | 0.00 | 0.00 | 79 | 1017.5 |
| 20260507083604 | 13 | 41 | 1.6 | 1.6 | 0.00 | 0.00 | 0.00 | 79 | 1017.5 |
| 20260507083104 | 13 | 41 | 1.6 | 1.6 | 0.00 | 0.00 | 0.00 | 79 | 1017.5 |
| 20260507082604 | 13 | 31 | 0.0 | 1.6 | 0.00 | 0.00 | 0.00 | 79 | 1017.4 |
| 20260507082106 | 13 | 30 | 0.0 | 1.6 | 0.00 | 0.00 | 0.00 | 79 | 1017.4 |
| 20260507081605 | 13 | 30 | 0.0 | 3.2 | 0.00 | 0.00 | 0.00 | 79 | 1017.6 |
| 20260507080604 | 13 | 19 | 0.0 | 3.2 | 0.00 | 0.00 | 0.00 | 78 | 1017.5 |
| 20260507080105 | 13 | 17 | 0.0 | 3.2 | 0.00 | 0.00 | 0.00 | 77 | 1017.6 |
| 20260507075604 | 13 | 14 | 0.0 | 1.6 | 0.00 | 0.00 | 0.00 | 77 | 1017.6 |
| 20260507075104 | 13 | 15 | 0.0 | 0.0 | 0.00 | 0.00 | 0.00 | 76 | 1017.5 |
| 20260507074604 | 13 | 15 | 0.0 | 3.2 | 0.00 | 0.00 | 0.00 | 76 | 1017.6 |
| 20260507074104 | 13 | 14 | 0.0 | 3.2 | 0.00 | 0.00 | 0.00 | 76 | 1017.7 |
| 20260507073104 | 13 | 0 | 0.0 | 1.6 | 0.00 | 0.00 | 0.00 | 75 | 1017.7 |
| 20260507072603 | 13 | 0 | 0.0 | 1.6 | 0.00 | 0.00 | 0.00 | 75 | 1017.8 |
| 20260507072104 | 13 | 0 | 0.0 | 1.6 | 0.00 | 0.00 | 0.00 | 75 | 1017.8 |
| 20260507071104 | 14 | 355 | 0.0 | 1.6 | 0.00 | 0.00 | 0.00 | 74 | 1018.1 |
| 20260507070605 | 14 | 355 | 0.0 | 1.6 | 0.00 | 0.00 | 0.00 | 74 | 1018.1 |
| 20260507065605 | 14 | 355 | 0.0 | 1.6 | 0.00 | 0.00 | 0.00 | 73 | 1018.1 |
| 20260507065104 | 14 | 355 | 0.0 | 1.6 | 0.00 | 0.00 | 0.00 | 73 | 1018.2 |
| 20260507064604 | 15 | 355 | 0.0 | 1.6 | 0.00 | 0.00 | 0.00 | 72 | 1018.1 |
| 20260507063604 | 15 | 354 | 0.0 | 1.6 | 0.00 | 0.00 | 0.00 | 72 | 1018.2 |
| 20260507063104 | 15 | 355 | 0.0 | 1.6 | 0.00 | 0.00 | 0.00 | 72 | 1018.1 |
| 20260507062604 | 15 | 355 | 0.0 | 3.2 | 0.00 | 0.00 | 0.00 | 72 | 1018.2 |
| 20260507062106 | 15 | 354 | 0.0 | 3.2 | 0.00 | 0.00 | 0.00 | 72 | 1018.1 |
| 20260507061604 | 15 | 323 | 0.0 | 1.6 | 0.00 | 0.00 | 0.00 | 71 | 1017.9 |
| 20260507061106 | 15 | 323 | 0.0 | 1.6 | 0.00 | 0.00 | 0.00 | 71 | 1018.0 |
| 20260507060604 | 15 | 323 | 0.0 | 1.6 | 0.00 | 0.00 | 0.00 | 70 | 1018.0 |
| 20260507055605 | 15 | 323 | 1.6 | 1.6 | 0.00 | 0.00 | 0.00 | 70 | 1018.0 |
| 20260507055104 | 16 | 317 | 1.6 | 1.6 | 0.00 | 0.00 | 0.00 | 69 | 1018.0 |
| 20260507054104 | 16 | 315 | 0.0 | 0.0 | 0.00 | 0.00 | 0.00 | 68 | 1018.0 |
| 20260507053604 | 16 | 315 | 0.0 | 3.2 | 0.00 | 0.00 | 0.00 | 68 | 1017.9 |
| 20260507052604 | 16 | 315 | 0.0 | 3.2 | 0.00 | 0.00 | 0.00 | 67 | 1018.1 |
| 20260507052104 | 16 | 320 | 0.0 | 3.2 | 0.00 | 0.00 | 0.00 | 67 | 1018.0 |
| 20260507051604 | 16 | 315 | 0.0 | 1.6 | 0.00 | 0.00 | 0.00 | 67 | 1018.1 |
| 20260507051106 | 16 | 315 | 0.0 | 1.6 | 0.00 | 0.00 | 0.00 | 67 | 1018.1 |
| 20260507050604 | 16 | 315 | 0.0 | 1.6 | 0.00 | 0.00 | 0.00 | 66 | 1018.0 |
| 20260507050104 | 16 | 315 | 0.0 | 1.6 | 0.00 | 0.00 | 0.00 | 66 | 1018.1 |
| 20260507045604 | 16 | 315 | 0.0 | 3.2 | 0.00 | 0.00 | 0.00 | 66 | 1018.1 |
| 20260507045104 | 17 | 322 | 0.0 | 3.2 | 0.00 | 0.00 | 0.00 | 66 | 1018.1 |
| 20260507044104 | 17 | 298 | 1.6 | 3.2 | 0.00 | 0.00 | 0.00 | 65 | 1017.9 |
| 20260507043604 | 17 | 294 | 0.0 | 1.6 | 0.00 | 0.00 | 0.00 | 65 | 1017.9 |
| 20260507043104 | 17 | 294 | 0.0 | 1.6 | 0.00 | 0.00 | 0.00 | 65 | 1017.8 |
| 20260507042604 | 17 | 294 | 0.0 | 1.6 | 0.00 | 0.00 | 0.00 | 65 | 1017.8 |
| 20260507042106 | 17 | 294 | 0.0 | 1.6 | 0.00 | 0.00 | 0.00 | 64 | 1017.8 |
| 20260507041604 | 17 | 294 | 0.0 | 1.6 | 0.00 | 0.00 | 0.00 | 64 | 1017.8 |
| 20260507041107 | 17 | 294 | 0.0 | 1.6 | 0.00 | 0.00 | 0.00 | 64 | 1017.8 |
| 20260507040604 | 17 | 294 | 0.0 | 1.6 | 0.00 | 0.00 | 0.00 | 63 | 1017.8 |
| 20260507035604 | 18 | 293 | 0.0 | 4.8 | 0.00 | 0.00 | 0.00 | 62 | 1017.8 |
| 20260507035103 | 18 | 292 | 0.0 | 4.8 | 0.00 | 0.00 | 0.00 | 62 | 1017.8 |
| 20260507034604 | 18 | 292 | 3.2 | 4.8 | 0.00 | 0.00 | 0.00 | 61 | 1017.6 |
| 20260507034104 | 18 | 292 | 3.2 | 4.8 | 0.00 | 0.00 | 0.00 | 61 | 1017.6 |
| 20260507033605 | 18 | 292 | 3.2 | 8.0 | 0.00 | 0.00 | 0.00 | 61 | 1017.5 |
| 20260507033104 | 18 | 292 | 3.2 | 8.0 | 0.00 | 0.00 | 0.00 | 61 | 1017.3 |
| 20260507032104 | 18 | 280 | 4.8 | 8.0 | 0.00 | 0.00 | 0.00 | 60 | 1017.3 |
| 20260507031605 | 18 | 264 | 4.8 | 4.8 | 0.00 | 0.00 | 0.00 | 59 | 1017.2 |
| 20260507030604 | 19 | 248 | 3.2 | 4.8 | 0.00 | 0.00 | 0.00 | 58 | 1017.2 |
| 20260507030104 | 19 | 245 | 3.2 | 4.8 | 0.00 | 0.00 | 0.00 | 58 | 1017.2 |
| 20260507025604 | 19 | 243 | 1.6 | 4.8 | 0.00 | 0.00 | 0.00 | 58 | 1017.2 |
| 20260507025104 | 19 | 243 | 1.6 | 4.8 | 0.00 | 0.00 | 0.00 | 57 | 1017.1 |
| 20260507024604 | 19 | 243 | 1.6 | 4.8 | 0.00 | 0.00 | 0.00 | 57 | 1016.8 |
| 20260507024105 | 20 | 243 | 1.6 | 4.8 | 0.00 | 0.00 | 0.00 | 57 | 1016.7 |
| 20260507023604 | 20 | 243 | 1.6 | 4.8 | 0.00 | 0.00 | 0.00 | 56 | 1016.7 |
| 20260507023104 | 20 | 242 | 3.2 | 8.0 | 0.00 | 0.00 | 0.00 | 55 | 1016.7 |
| 20260507022604 | 20 | 305 | 3.2 | 8.0 | 0.00 | 0.00 | 0.00 | 54 | 1016.7 |
| 20260507022106 | 21 | 320 | 4.8 | 11.3 | 0.00 | 0.00 | 0.00 | 53 | 1016.7 |
| 20260507021604 | 21 | 254 | 3.2 | 12.9 | 0.00 | 0.00 | 0.00 | 53 | 1016.6 |
| 20260507020604 | 21 | 262 | 8.0 | 12.9 | 0.00 | 0.00 | 0.00 | 50 | 1016.5 |
| 20260507015604 | 22 | 244 | 8.0 | 16.1 | 0.00 | 0.00 | 0.00 | 48 | 1016.3 |
| 20260507014604 | 22 | 267 | 8.0 | 16.1 | 0.00 | 0.00 | 0.00 | 48 | 1016.3 |
| 20260507014104 | 22 | 258 | 8.0 | 14.5 | 0.00 | 0.00 | 0.00 | 48 | 1016.3 |
| 20260507013604 | 23 | 260 | 8.0 | 14.5 | 0.00 | 0.00 | 0.00 | 47 | 1016.3 |
| 20260507012104 | 23 | 265 | 9.7 | 16.1 | 0.00 | 0.00 | 0.00 | 43 | 1016.2 |
| 20260507011604 | 23 | 276 | 9.7 | 19.3 | 0.00 | 0.00 | 0.00 | 43 | 1016.2 |
| 20260507011105 | 24 | 274 | 11.3 | 19.3 | 0.00 | 0.00 | 0.00 | 42 | 1016.1 |
| 20260507010603 | 24 | 275 | 9.7 | 16.1 | 0.00 | 0.00 | 0.00 | 39 | 1016.0 |
| 20260507010104 | 24 | 263 | 8.0 | 16.1 | 0.00 | 0.00 | 0.00 | 40 | 1015.9 |
| 20260507005604 | 24 | 261 | 9.7 | 16.1 | 0.00 | 0.00 | 0.00 | 39 | 1015.9 |
| 20260507005104 | 25 | 275 | 8.0 | 19.3 | 0.00 | 0.00 | 0.00 | 37 | 1015.9 |
| 20260507004604 | 25 | 281 | 8.0 | 19.3 | 0.00 | 0.00 | 0.00 | 38 | 1015.8 |
| 20260507004105 | 25 | 282 | 9.7 | 19.3 | 0.00 | 0.00 | 0.00 | 35 | 1015.8 |
| 20260507003604 | 25 | 261 | 8.0 | 19.3 | 0.00 | 0.00 | 0.00 | 35 | 1015.8 |
| 20260507002604 | 25 | 322 | 11.3 | 19.3 | 0.00 | 0.00 | 0.00 | 32 | 1015.8 |
| 20260507001604 | 25 | 303 | 8.0 | 20.9 | 0.00 | 0.00 | 0.00 | 32 | 1015.8 |
| 20260507000603 | 25 | 294 | 8.0 | 19.3 | 0.00 | 0.00 | 0.00 | 32 | 1015.7 |
| 20260507000105 | 25 | 300 | 11.3 | 19.3 | 0.00 | 0.00 | 0.00 | 31 | 1015.8 |
| 20260506235604 | 25 | 320 | 8.0 | 19.3 | 0.00 | 0.00 | 0.00 | 32 | 1015.8 |
| 20260506234604 | 25 | 323 | 9.7 | 16.1 | 0.00 | 0.00 | 0.00 | 31 | 1015.6 |
| 20260506234104 | 25 | 309 | 9.7 | 20.9 | 0.00 | 0.00 | 0.00 | 32 | 1015.5 |
| 20260506233604 | 26 | 318 | 11.3 | 20.9 | 0.00 | 0.00 | 0.00 | 31 | 1015.7 |
| 20260506233104 | 26 | 276 | 8.0 | 16.1 | 0.00 | 0.00 | 0.00 | 30 | 1015.7 |
| 20260506232104 | 26 | 298 | 4.8 | 12.9 | 0.00 | 0.00 | 0.00 | 31 | 1015.7 |
| 20260506231604 | 25 | 265 | 3.2 | 12.9 | 0.00 | 0.00 | 0.00 | 31 | 1015.7 |
| 20260506230604 | 25 | 265 | 6.4 | 16.1 | 0.00 | 0.00 | 0.00 | 31 | 1015.9 |
| 20260506230105 | 25 | 0 | 4.8 | 14.5 | 0.00 | 0.00 | 0.00 | 30 | 1016.0 |
| 20260506225604 | 26 | 255 | 9.7 | 14.5 | 0.00 | 0.00 | 0.00 | 30 | 1016.0 |
| 20260506224608 | 25 | 269 | 1.6 | 11.3 | 0.00 | 0.00 | 0.00 | 31 | 1016.1 |
| 20260506224104 | 25 | 243 | 4.8 | 16.1 | 0.00 | 0.00 | 0.00 | 32 | 1016.1 |
| 20260506223604 | 25 | 296 | 4.8 | 16.1 | 0.00 | 0.00 | 0.00 | 31 | 1016.1 |
| 20260506223104 | 25 | 280 | 8.0 | 16.1 | 0.00 | 0.00 | 0.00 | 31 | 1016.2 |
| 20260506222603 | 25 | 284 | 8.0 | 14.5 | 0.00 | 0.00 | 0.00 | 30 | 1016.2 |
| 20260506222105 | 25 | 288 | 3.2 | 9.7 | 0.00 | 0.00 | 0.00 | 31 | 1016.2 |